Pyrzowice, Poland

4:26 PM CEST on August 31, 2016 (GMT +0200)
Pyrzowice

Weather History for EPKT - March, 2013

Change the Weather History Date:

Tuesday, March 12, 2013

  Actual Average Record
Temperature  
Mean Temperature 26 °F -  
Max Temperature 28 °F 47 °F 60 °F (2002)
Min Temperature 23 °F 30 °F 15 °F (2006)
Degree Days  
Heating Degree Days 40    
Moisture  
Dew Point 23 °F    
Average Humidity 89    
Maximum Humidity 100    
Minimum Humidity 80    
Precipitation  
Precipitation 0.00 in - - ()
Sea Level Pressure  
Sea Level Pressure 29.58 in    
Wind  
Wind Speed 5 mph ()    
Max Wind Speed 8 mph    
Max Gust Speed -    
Visibility 3.2 miles    
Events Snow    
Averages and records for this station are not official NWS values.
T = Trace of Precipitation, MM = Missing Value Source: Averaged Metar Reports

Daily Weather History Graph

Daily Weather History Graph

Search for Another Location

Airport or City:

Trip Planner

Search our weather history database for the weather conditions in past years. The results will help you decide how hot, cold, wet, or windy it might be!

Date:

Astronomy

Mar. 12, 2013 Rise Set
Actual Time 6:04 AM CET 5:43 PM CET
Civil Twilight 5:31 AM CET 6:16 PM CET
Nautical Twilight 4:53 AM CET 6:54 PM CET
Astronomical Twilight 4:14 AM CET 7:33 PM CET
Moon 5:53 AM CET (3/12) 6:51 PM CET (3/12)
Length of Visible Light 12h 44m
Length of Day
11h 39m
New Moon, 0% of the Moon is Illuminated
Mar 12
New Moon
Mar 19
First Quarter
Mar 27
Full
Apr 3
Last Quarter
Apr 10
New

Hourly Weather History & Observations

Time (CET) Temp. Windchill Dew Point Humidity Pressure Visibility Wind Dir Wind Speed Gust Speed Precip Events Conditions
12:00 AM 24.8 °F 17.9 °F 21.2 °F 86% 29.65 in 3.7 mi WNW 5.8 mph - N/A Snow Light Snow
12:30 AM 24.8 °F 17.9 °F 21.2 °F 86% 29.65 in 3.7 mi WNW 5.8 mph - N/A   Mostly Cloudy
1:00 AM 24.8 °F 16.9 °F 21.2 °F 86% 29.65 in 3.7 mi WNW 6.9 mph - N/A   Mostly Cloudy
1:30 AM 24.8 °F 16.9 °F 21.2 °F 86% 29.65 in 3.7 mi WNW 6.9 mph - N/A   Mostly Cloudy
2:00 AM 23.0 °F 14.7 °F 21.2 °F 93% 29.65 in 3.7 mi NW 6.9 mph - N/A   Mostly Cloudy
2:30 AM 23.0 °F 15.8 °F 21.2 °F 93% 29.62 in 3.7 mi WNW 5.8 mph - N/A   Mostly Cloudy
3:00 AM 23.0 °F 17.0 °F 21.2 °F 93% 29.62 in 3.7 mi NW 4.6 mph - N/A   Mostly Cloudy
3:30 AM 23.0 °F 14.7 °F 21.2 °F 93% 29.62 in 3.7 mi WNW 6.9 mph - N/A   Mostly Cloudy
4:00 AM 23.0 °F 15.8 °F 21.2 °F 93% 29.62 in 3.7 mi WNW 5.8 mph - N/A Snow Light Snow
4:30 AM 23.0 °F 17.0 °F 21.2 °F 93% 29.62 in 3.7 mi WNW 4.6 mph - N/A Snow Light Snow
5:00 AM 23.0 °F 17.0 °F 21.2 °F 93% 29.62 in 3.7 mi WNW 4.6 mph - N/A Snow Light Snow
5:30 AM 23.0 °F 17.0 °F 21.2 °F 93% 29.59 in 3.7 mi NW 4.6 mph - N/A Snow Light Snow
6:00 AM 23.0 °F 18.4 °F 21.2 °F 93% 29.59 in 3.7 mi NW 3.5 mph - N/A Snow Light Snow
6:30 AM 23.0 °F 17.0 °F 21.2 °F 93% 29.59 in 3.7 mi NW 4.6 mph - N/A Snow Light Snow
7:00 AM 24.8 °F 19.1 °F 21.2 °F 86% 29.59 in 3.7 mi North 4.6 mph - N/A   Mostly Cloudy
7:30 AM 24.8 °F 20.5 °F 21.2 °F 86% 29.62 in 3.7 mi North 3.5 mph - N/A   Mostly Cloudy
8:00 AM 24.8 °F 20.5 °F 21.2 °F 86% 29.62 in 3.7 mi NE 3.5 mph - N/A   Mostly Cloudy
8:30 AM 24.8 °F 20.5 °F 21.2 °F 86% 29.59 in 3.7 mi NNE 3.5 mph - N/A   Mostly Cloudy
9:00 AM 24.8 °F 20.5 °F 21.2 °F 86% 29.59 in 3.1 mi NNE 3.5 mph - N/A   Mostly Cloudy
9:30 AM 24.8 °F 19.1 °F 21.2 °F 86% 29.59 in 3.1 mi NNE 4.6 mph - N/A   Mostly Cloudy
10:00 AM 24.8 °F 20.5 °F 23.0 °F 93% 29.59 in 3.7 mi NNE 3.5 mph - N/A   Mostly Cloudy
10:30 AM 24.8 °F 20.5 °F 21.2 °F 86% 29.59 in 3.7 mi NW 3.5 mph - N/A Snow Light Snow
11:00 AM 26.6 °F - 23.0 °F 86% 29.59 in 3.7 mi Variable 2.3 mph - N/A Snow Light Snow
11:30 AM 26.6 °F - 23.0 °F 86% 29.59 in 3.7 mi Variable 2.3 mph - N/A Snow Light Snow
12:00 PM 26.6 °F 22.6 °F 23.0 °F 86% 29.59 in 4.3 mi WNW 3.5 mph - N/A   Mostly Cloudy
12:30 PM 26.6 °F 22.6 °F 23.0 °F 86% 29.59 in 4.3 mi WNW 3.5 mph - N/A   Mostly Cloudy
1:00 PM 28.4 °F 24.6 °F 23.0 °F 80% 29.59 in 4.3 mi North 3.5 mph - N/A   Mostly Cloudy
1:30 PM 28.4 °F 22.2 °F 23.0 °F 80% 29.56 in 4.3 mi North 5.8 mph - N/A Snow Light Snow
2:00 PM 28.4 °F 23.3 °F 23.0 °F 80% 29.56 in 4.3 mi North 4.6 mph - N/A Snow Light Snow
2:30 PM 28.4 °F 23.3 °F 23.0 °F 80% 29.56 in 4.3 mi NNW 4.6 mph - N/A Snow Light Snow
3:00 PM 28.4 °F 23.3 °F 23.0 °F 80% 29.56 in 4.3 mi North 4.6 mph - N/A Snow Light Snow
3:30 PM 28.4 °F 22.2 °F 23.0 °F 80% 29.56 in 4.3 mi North 5.8 mph - N/A Snow Light Snow
4:00 PM 28.4 °F 22.2 °F 23.0 °F 80% 29.56 in 3.1 mi North 5.8 mph - N/A Snow Light Snow
4:30 PM 26.6 °F 19.1 °F 24.8 °F 93% 29.56 in 1.2 mi North 6.9 mph - N/A Snow Snow
5:00 PM 26.6 °F 19.1 °F 24.8 °F 93% 29.56 in 1.6 mi North 6.9 mph - N/A Snow Light Snow
5:30 PM 26.6 °F 21.2 °F 24.8 °F 93% 29.56 in 1.6 mi North 4.6 mph - N/A Snow Light Snow
6:00 PM 26.6 °F 20.0 °F 24.8 °F 93% 29.56 in 1.9 mi NNE 5.8 mph - N/A Snow Light Snow
6:30 PM 24.8 °F 16.9 °F 24.8 °F 100% 29.56 in 1.6 mi NNE 6.9 mph - N/A Snow Light Snow
7:00 PM 24.8 °F 16.1 °F 24.8 °F 100% 29.56 in 1.6 mi NNE 8.1 mph - N/A Snow Light Snow
7:30 PM 24.8 °F 17.9 °F 23.0 °F 93% 29.56 in 1.6 mi North 5.8 mph - N/A Snow Light Snow
8:00 PM 24.8 °F 17.9 °F 24.8 °F 100% 29.56 in 1.9 mi NNE 5.8 mph - N/A Snow Light Snow
8:30 PM 24.8 °F 17.9 °F 23.0 °F 93% 29.53 in 1.9 mi NE 5.8 mph - N/A Snow Light Snow
9:00 PM 24.8 °F 19.1 °F 24.8 °F 100% 29.56 in 1.9 mi NE 4.6 mph - N/A Snow Light Snow
9:30 PM 24.8 °F 17.9 °F 23.0 °F 93% 29.53 in 1.9 mi NNE 5.8 mph - N/A Snow Light Snow
10:00 PM 24.8 °F 16.9 °F 23.0 °F 93% 29.53 in 1.9 mi NNE 6.9 mph - N/A Snow Light Snow
10:30 PM 24.8 °F 16.9 °F 23.0 °F 93% 29.53 in 2.5 mi NE 6.9 mph - N/A Snow Light Snow
11:00 PM 24.8 °F 16.9 °F 23.0 °F 93% 29.53 in 2.5 mi NE 6.9 mph - N/A Snow Light Snow
11:30 PM 24.8 °F 16.9 °F 23.0 °F 93% 29.53 in 2.5 mi NE 6.9 mph - N/A Snow Light Snow